Regional Weather Roundup
Issued by NWS

Home | Current Version | Previous Version | Graphics & Text | Print | Product List | Glossary On
Versions: 1 2 3 4 5 6 7 8 9 10 11 12 13 14 15 16 17 18 19 20 21 22 23 24 25 26 27 28 29 30 31 32 33 34 35 36 37 38 39 40 41 42 43 44 45 46 47 48 49 50
224
ASUS43 KLOT 210203
RWRIL

ILLINOIS REGIONAL WEATHER ROUNDUP
NATIONAL WEATHER SERVICE CHICAGO/ROMEOVILLE IL
800 PM CST SAT JAN 20 2018

NOTE: "FAIR" INDICATES FEW OR NO CLOUDS BELOW 12,000 FEET WITH NO
SIGNIFICANT WEATHER AND/OR OBSTRUCTIONS TO VISIBILITY.

* THESE STATIONS ARE NOT UNDER NWS QUALITY CONTROL. THEY ALSO MAY NOT
  REPORT WEATHER SUCH AS PRECIPITATION OR FOG.

ILZ001-002-007-009-015-016-024-210300-
NORTHWEST ILLINOIS

CITY           SKY/WX    TMP DP  RH WIND       PRES   REMARKS
MOLINE         CLOUDY    42  37  82 CALM      29.95S
STERLING*      CLOUDY    37  35  92 SE3       29.97S
SAVANNA*       FAIR      33  32  96 SE5       29.96S FOG     WCI  29
$$

ILZ003-004-008-010-011-017-018-210300-
NORTH CENTRAL ILLINOIS

CITY           SKY/WX    TMP DP  RH WIND       PRES   REMARKS
ROCKFORD       CLOUDY    37  34  89 S6        29.98S WCI  32
FREEPORT*      FAIR      34  33  96 S8        29.97R FOG     WCI  27
ROCHELLE*      CLOUDY    35  34  96 S6        29.97F FOG     WCI  30
DE KALB*       CLOUDY    38  37  94 SW5       29.98S WCI  35
PERU*          CLOUDY    39  36  87 S3        29.99S
$$

ILZ005-006-012>014-019>023-210300-
NORTHEAST ILLINOIS

CITY           SKY/WX    TMP DP  RH WIND       PRES   REMARKS
CHICAGO-OHARE  CLOUDY    41  36  82 SW8       29.99R
CHICAGO-MIDWAY CLOUDY    42  37  82 SW8       29.99S
AURORA         CLOUDY    38  36  92 S5        29.98F WCI  34
LANSING*       CLOUDY    38  37  97 SW5       30.01S WCI  35
JOLIET*        CLOUDY    42  39  89 S3        30.00S
WAUKEGAN       MOCLDY    30  28  92 SW5       29.97S WCI  25
DUPAGE AIRPORT CLOUDY    38  37  97 CALM      29.98S FOG
KANKAKEE*      CLOUDY   N/A N/A N/A S5        30.03S
WHEELING       CLOUDY    42  38  85 SW5       30.00R
MORRIS*        CLOUDY    39  36  91 S5        30.00R
NORTHERLY ISL    N/A     42  35  76 SW9         N/A
$$

LMZ740>746-210300-
SOUTHERN LAKE MICHIGAN

STATION/POSITION SKY/WX   TEMP    WIND        PRES    VSBY  WAVE
                          AIR SEA DIR/SP/G                  HT/PER
                          (F)     (DEG/KT/KT) (MB)    (MI)  (FT/S)
HARRISON CRIB              43     200/ 13/ 14   N/A
BURNHAM HARBOR             42     180/  8/ 13   N/A
CALUMET HARBOR             41     180/  8/ 13 1015.2F
BURNS HARBOR               40     190/  9/ 11 1016.9R
MICHIGAN CITY              39     170/ 11/ 13   N/A
$$

ILZ025>027-034>036-040-047-049-050-058-095>099-210300-
WEST-CENTRAL ILLINOIS

CITY           SKY/WX    TMP DP  RH WIND       PRES   REMARKS
QUINCY         MOCLDY    44  40  85 E8        29.94F
GALESBURG*     CLOUDY    42  39  90 SE3       29.97S
MACOMB*        CLOUDY    43  40  88 S6        29.98S
JACKSONVILLE*  CLOUDY    43  36  75 SE7       29.98S
PITTSFIELD*    CLOUDY    42  38  89 SE5       29.97F
$$

ILZ028>032-037-038-041>044-048-051>054-059>061-210300-
CENTRAL ILLINOIS

CITY           SKY/WX    TMP DP  RH WIND       PRES   REMARKS
BLOOMINGTON    CLOUDY    40  36  86 S8        30.00R
DECATUR        FAIR      39  37  92 S9        30.01S WCI  33
PEORIA         CLOUDY    43  39  86 S3        29.99R
LACON*         CLOUDY    41  37  88 E6        29.98S
LINCOLN*       CLOUDY    42  38  84 S6        30.00S
SPRINGFIELD    CLOUDY    46  40  79 S14       30.00R
TAYLORVILLE    FAIR      38  37  92 SE8       30.01R WCI  33
$$

ILZ033-039-045-046-055>057-062-063-210300-
EAST-CENTRAL ILLINOIS

CITY           SKY/WX    TMP DP  RH WIND       PRES   REMARKS
CHAMPAIGN      CLOUDY    40  38  93 S14       30.02R
DANVILLE*      CLOUDY    40  36  87 S12       30.01R
RANTOUL*       CLOUDY    38  36  91 S6        30.01S WCI  34
MATTOON        MOCLDY    42  39  89 S10       30.02R
$$

ILZ079-100>102-210300-
SOUTHWEST ILLINOIS

CITY           SKY/WX    TMP DP  RH WIND       PRES   REMARKS
ALTON          CLEAR     37  36  93 SE7       29.98S WCI  32
BELLEVILLE     CLOUDY    42  37  85 SW8       29.99S
CAHOKIA*       CLOUDY    43  37  79 S13       29.97F
SPARTA*        CLOUDY    44  43  97 S7        30.04S
$$

ILZ064>066-069>071-074>076-080>082-084>086-088>090-092>094-210300-
SOUTH-CENTRAL ILLINOIS

CITY           SKY/WX    TMP DP  RH WIND       PRES   REMARKS
CARBONDALE     CLOUDY    48  44  86 S15G25    30.05S
CAIRO*         CLOUDY    43  39  86 S7        30.08S
EFFINGHAM*     CLOUDY    42  42  97 SE7       30.05S
MARION         CLOUDY    46  39  78 S12       30.07S
MT. VERNON     MOCLDY    39  37  92 S6        30.06S WCI  35
CENTRALIA*     CLOUDY    44  43  96 S18       30.02F
SALEM*         CLOUDY    45  42  89 S15       30.03S
$$

ILZ067-068-072-073-078-083-087-091-210300-
SOUTHEAST ILLINOIS

CITY           SKY/WX    TMP DP  RH WIND       PRES   REMARKS
LAWRENCEVILLE  CLOUDY    39  32  76 CALM      30.07R
FLORA*         CLOUDY    42  41  96 S8        30.05S FOG
FAIRFIELD*     CLOUDY    41  40  97 S5        30.06S
HARRISBURG*    CLOUDY    43  40  89 CALM      30.08S
ROBINSON*      CLOUDY    40  39  98 S5        30.08S FOG
CARMI*         CLOUDY    39  38  96 S7        30.07S WCI  34
$$

ABBREVIATIONS USED IN REMARKS
   TC - TEMPERATURE IN CELSIUS
  WCI - WIND CHILL INDEX
   HX - HEAT INDEX
  VSB - VISIBILITY
$$





USA.gov is the U.S. government's official web portal to all federal, state and local government web resources and services.